Simultaneous Nadir Overpasses (SNOs) Predictions

Prediction of SNOs between LANDSAT-8 and NOAA-19 Satellite Orbit:

Table of predicted SNOs for the next 14.0 days since TLE Epoch: 8/20/2022
Index Date (LANDSAT-8) Time (LANDSAT-8) Lat,Lon (LANDSAT-8) SZA (LANDSAT-8 ) Date (NOAA-19) Time (NOAA-19) Lat,Lon (NOAA-19) SZA (NOAA-19 ) Distance(km) Time Diff (sec)
1 08/21/2022 20:24:40 -80.85, 90.18 109.32 08/21/2022 20:23:56 -80.84, 90.13 109.36 2.00 44
2 08/21/2022 21:14:07 80.83,-102.44 70.65 08/21/2022 21:14:50 80.83,-102.38 70.68 0.98 43
3 08/24/2022 02:47:51 -80.84, -5.73 108.56 08/24/2022 02:47:48 -80.84, -5.66 108.56 1.50 3
4 08/26/2022 08:21:35 80.83, 90.69 72.20 08/26/2022 08:20:36 80.84, 90.80 72.19 2.38 59
5 08/26/2022 09:11:02 -80.83,-101.69 107.80 08/26/2022 09:11:40 -80.83,-101.50 107.76 3.36 38
6 08/28/2022 14:44:44 80.84, -5.00 73.02 08/28/2022 14:44:27 80.84, -5.07 73.01 1.33 17
7 08/30/2022 20:18:28 -80.84, 91.62 106.17 08/30/2022 20:17:25 -80.85, 91.51 106.20 2.12 63
8 08/30/2022 21:07:54 80.84,-100.74 73.85 08/30/2022 21:08:18 80.84,-100.60 73.87 2.55 24
9 09/02/2022 02:41:38 -80.85, -4.14 105.33 09/02/2022 02:41:16 -80.84, -4.12 105.34 0.50 22



Historial Predications of SNOs between LANDSAT-8 and NOAA-19
